This is the latest recevied weather packets stored in our database for station/object WB3IGR. If no packets are shown the sender has not sent any weather packets the latest 10 day(s).
| Time | Temp. | Humidity | Pressure | Rain* | Wind** | Luminosity | Snow |
|---|---|---|---|---|---|---|---|
| 1777763650 | 11.67° C | 54% | 1013.5 hPa | 0 mm | - | 43 W/m² | - |
| 1777763348 | 11.67° C | 55% | 1013.6 hPa | 0 mm | - | 56 W/m² | - |
| 1777763045 | 11.67° C | 53% | 1013.5 hPa | 0 mm | - | 60 W/m² | - |
| 1777762743 | 11.67° C | 54% | 1013.8 hPa | 0 mm | - | 54 W/m² | - |
| 1777762439 | 11.67° C | 54% | 1013.7 hPa | 0 mm | - | 52 W/m² | - |
| 1777762135 | 11.67° C | 52% | 1013.4 hPa | 0 mm | - | 51 W/m² | - |
| 1777761826 | 11.67° C | 51% | 1013.8 hPa | 0 mm | - | 60 W/m² | - |
| 1777761523 | 11.67° C | 51% | 1013.7 hPa | 0 mm | - | 61 W/m² | - |
| 1777761221 | 11.67° C | 53% | 1013.5 hPa | 0 mm | - | 58 W/m² | - |
| 1777760919 | 11.67° C | 53% | 1013.6 hPa | 0 mm | - | 62 W/m² | - |
| 1777760616 | 11.67° C | 52% | 1013.6 hPa | 0 mm | - | 60 W/m² | - |
| 1777760312 | 11.67° C | 51% | 1013.6 hPa | 0 mm | - | 65 W/m² | - |
| 1777760008 | 12.22° C | 51% | 1013.5 hPa | 0 mm | - | 78 W/m² | - |
| 1777759706 | 12.22° C | 49% | 1013.5 hPa | 0 mm | - | 94 W/m² | - |
| 1777759401 | 12.78° C | 48% | 1013.6 hPa | 0 mm | - | 113 W/m² | - |
| 1777759098 | 12.22° C | 48% | 1013.5 hPa | 0 mm | - | 141 W/m² | - |
| 1777758796 | 12.22° C | 46% | 1013.6 hPa | 0 mm | - | 159 W/m² | - |
| 1777758492 | 12.78° C | 47% | 1013.5 hPa | 0 mm | - | 330 W/m² | - |
| 1777758189 | 12.78° C | 48% | 1013.5 hPa | 0 mm | - | 152 W/m² | - |
| 1777757886 | 12.78° C | 49% | 1013.4 hPa | 0 mm | - | 168 W/m² | - |
| 1777757583 | 13.33° C | 48% | 1013.4 hPa | 0 mm | - | 175 W/m² | - |
| 1777757282 | 13.33° C | 46% | 1013.1 hPa | 0 mm | - | 168 W/m² | - |
| 1777756980 | 13.33° C | 46% | 1013.2 hPa | 0 mm | - | 327 W/m² | - |
| 1777756676 | 13.33° C | 46% | 1013.3 hPa | 0 mm | - | 231 W/m² | - |
| 1777756372 | 12.78° C | 47% | 1013.2 hPa | 0 mm | - | 264 W/m² | - |
* Rain latest hour (hover to see other rain measurements)
** Current wind speed in m/s (hover to see current wind gust speed)